Waarnemingen

Advertentie
Mijn weer
Rheinstetten, Duitsland (10731): temperatuur & dauwpunt: 12.11.2018 17:00:00 - 18.11.2018 17:00:00 (CET)Rheinstetten, Duitsland (10731): temperatuur 5cm & temperatuur -5cm: 12.11.2018 17:00:00 - 18.11.2018 17:00:00 (CET)Rheinstetten, Duitsland (10731): temperatuur -20cm & temperatuur -100cm: 12.11.2018 17:00:00 - 18.11.2018 17:00:00 (CET)Rheinstetten, Duitsland (10731): windsnelheid & windstoten: 12.11.2018 17:00:00 - 18.11.2018 17:00:00 (CET)Rheinstetten, Duitsland (10731): windrichting: 12.11.2018 17:00:00 - 18.11.2018 17:00:00 (CET)Rheinstetten, Duitsland (10731): luchtdruk: 12.11.2018 17:00:00 - 18.11.2018 17:00:00 (CET)Rheinstetten, Duitsland (10731): zicht: 12.11.2018 17:00:00 - 18.11.2018 17:00:00 (CET)Rheinstetten, Duitsland (10731): Zonneschijnduur: 12.11.2018 17:00:00 - 18.11.2018 17:00:00 (CET)Rheinstetten, Duitsland (10731): neerslag: 12.11.2018 17:00:00 - 18.11.2018 17:00:00 (CET)
Datum & Tijd tt [°C] td [°C] tt 5cm [°C] tt -5cm [°C] tt -20cm [°C] tt -100cm [°C] ff [km/u] ff [kn] fx [km/u] fx [kn] dd ppp [hPa] vv [km] sd [min] rr [mm]
18.11.2018 17:00:00 5,8 -2,6 3,5 4,2 5,6 10,6 13 7 23 12 NO 1022,3 35 23 0,0
18.11.2018 16:00:00 7,2 -3,5 6,9 5,4 5,5 10,6 18 10 34 19 ONO 1022,5 44 60 0,0
18.11.2018 15:00:00 7,3 -3,3 8,2 6,3 5,2 10,7 20 11 31 17 NO 1023,0 40 60 0,0
18.11.2018 14:00:00 7,1 -3,0 9,0 6,4 4,7 10,7 15 8 40 21 ONO 1023,3 35 60 0,0
18.11.2018 13:00:00 6,1 -3,3 7,5 5,7 4,3 10,7 32 17 47 26 ONO 1024,3 32 60 0,0
18.11.2018 12:00:00 5,1 -3,6 6,7 4,6 3,8 10,7 27 15 43 23 ONO 1025,1 31 60 0,0
18.11.2018 11:00:00 4,3 -3,6 5,8 3,1 3,6 10,8 26 14 38 20 NO 1025,7 29 60 0,0
18.11.2018 10:00:00 3,0 -4,1 3,9 1,0 3,6 10,8 22 12 40 21 ONO 1025,7 37 60 0,0
18.11.2018 09:00:00 2,0 -3,1 2,3 0,6 3,7 10,8 16 9 35 19 NO 1026,3 29 44 0,0
18.11.2018 08:00:00 1,4 -2,9 -0,6 0,6 3,8 10,8 11 6 21 11 NO 1026,2 31 0 0,0
18.11.2018 07:00:00 1,5 -2,6 -0,2 0,7 3,9 10,8 15 8 25 13 NO 1026,3 28 0 0,0
18.11.2018 06:00:00 1,0 -2,3 -0,8 0,7 4,1 10,8 14 8 26 14 NNO 1026,8 25 0 0,0
18.11.2018 05:00:00 1,9 -2,2 0,6 0,6 4,3 10,9 19 10 29 16 NO 1026,7 26 0 0,0
18.11.2018 04:00:00 2,0 -2,1 0,4 0,9 4,5 10,9 16 9 32 17 NO 1026,7 24 0 0,0
18.11.2018 03:00:00 2,4 -2,0 1,0 1,2 4,7 10,9 18 10 35 19 NO 1027,0 26 0 0,0
18.11.2018 02:00:00 2,7 -1,9 1,2 1,5 4,9 10,9 21 11 40 22 ONO 1027,3 25 0 0,0
18.11.2018 01:00:00 3,5 -2,0 2,2 1,8 5,1 11,0 26 14 45 24 ONO 1027,5 29 0 0,0
18.11.2018 00:00:00 4,0 -2,1 2,7 2,1 5,4 11,0 26 14 38 20 NO 1027,9 26 0 0,0
17.11.2018 23:00:00 4,3 -1,7 2,9 2,4 5,6 11,0 21 12 36 19 NO 1027,8 31 0 0,0
17.11.2018 22:00:00 4,9 -1,5 3,4 2,8 5,8 11,0 20 11 30 16 NO 1027,6 35 0 0,0
17.11.2018 21:00:00 6,0 -1,8 4,1 3,2 6,1 11,1 17 9 36 19 NO 1027,2 39 0 0,0
17.11.2018 20:00:00 6,8 -2,1 5,2 3,6 6,4 11,1 25 14 36 19 NO 1027,3 42 0 0,0
17.11.2018 19:00:00 6,6 -0,5 4,4 4,1 6,6 11,1 15 8 26 14 NO 1027,2 42 0 0,0
17.11.2018 18:00:00 8,2 -0,9 6,3 4,9 6,8 11,1 18 10 34 18 NO 1026,8 45 0 0,0
17.11.2018 17:00:00 8,6 0,3 6,9 5,9 6,9 11,2 21 11 35 19 NO 1026,4 38 26 0,0
17.11.2018 16:00:00 9,7 1,0 9,3 7,3 6,8 11,2 23 12 40 22 NO 1026,2 46 60 0,0
17.11.2018 15:00:00 10,5 0,0 11,0 8,1 6,5 11,2 26 14 39 21 ONO 1026,1 49 60 0,0
17.11.2018 14:00:00 9,7 0,8 11,0 8,4 5,9 11,2 22 12 37 20 ONO 1026,3 39 60 0,0
17.11.2018 13:00:00 8,2 0,5 10,2 7,8 5,3 11,2 17 9 30 16 ONO 1027,0 28 60 0,0
17.11.2018 12:00:00 7,1 1,5 9,0 6,3 4,8 11,3 21 12 33 18 ONO 1027,5 28 60 0,0
17.11.2018 11:00:00 5,1 0,4 6,4 4,5 4,4 11,3 22 12 34 18 NO 1028,2 21 60 0,0
17.11.2018 10:00:00 3,7 0,5 4,6 2,7 4,3 11,3 19 10 31 17 NO 1028,4 17 60 0,0
17.11.2018 09:00:00 2,3 -0,1 2,1 1,2 4,4 11,3 18 10 27 14 NO 1028,8 13 28 0,0
17.11.2018 08:00:00 1,5 -0,2 0,3 0,8 4,5 11,3 16 9 24 13 NO 1028,5 10 0 0,0
17.11.2018 07:00:00 1,8 -0,1 0,6 0,9 4,7 11,3 18 10 25 14 NO 1028,0 11 0 0,0
17.11.2018 06:00:00 1,9 0,1 0,4 1,0 4,9 11,4 14 8 21 12 NO 1028,1 10 0 0,0
17.11.2018 05:00:00 2,1 0,2 0,5 1,2 5,2 11,4 14 7 20 11 NO 1028,1 12 0 0,0
17.11.2018 04:00:00 2,1 0,0 0,6 1,5 5,4 11,4 14 8 22 12 ONO 1028,3 16 0 0,0
17.11.2018 03:00:00 2,6 0,1 1,1 1,8 5,6 11,4 13 7 24 13 ONO 1028,2 16 0 0,0
17.11.2018 02:00:00 2,9 0,4 1,3 1,9 5,9 11,4 14 8 22 12 NO 1028,1 17 0 0,0
17.11.2018 01:00:00 2,2 0,4 0,2 2,3 6,2 11,4 11 6 16 9 NNO 1028,3 16 0 0,0
17.11.2018 00:00:00 2,9 0,7 1,0 2,8 6,5 11,4 11 6 19 11 NNO 1028,4 18 0 0,0
16.11.2018 23:00:00 3,8 1,1 1,9 3,1 6,8 11,4 15 8 18 10 NNO 1028,7 20 0 0,0
16.11.2018 22:00:00 4,1 1,3 1,9 3,7 7,2 11,5 12 7 26 14 NNO 1028,8 23 0 0,0
16.11.2018 21:00:00 5,6 1,7 3,8 4,1 7,5 11,5 18 10 25 14 NNO 1028,6 23 0 0,0
16.11.2018 20:00:00 5,9 1,9 3,6 4,6 7,8 11,5 11 6 18 10 NO 1028,6 24 0 0,0
16.11.2018 19:00:00 6,1 2,1 2,7 5,3 8,2 11,5 9 5 17 9 NO 1028,2 25 0 0,0
16.11.2018 18:00:00 7,5 2,3 4,9 6,1 8,5 11,5 11 6 21 11 NO 1027,9 27 0 0,0
16.11.2018 17:00:00 8,2 2,7 5,2 7,3 8,7 11,5 9 5 22 12 NO 1027,5 24 26 0,0
16.11.2018 16:00:00 9,7 2,7 9,6 8,7 8,6 11,6 15 8 33 18 NO 1027,4 25 60 0,0
16.11.2018 15:00:00 10,1 1,6 10,9 9,5 8,4 11,6 21 11 32 18 ONO 1027,4 26 60 0,0
16.11.2018 14:00:00 9,5 2,2 11,1 10,0 8,0 11,6 21 12 31 17 ONO 1027,9 19 60 0,0
16.11.2018 13:00:00 9,5 3,2 11,4 9,7 7,5 11,6 18 10 29 16 NO 1028,1 17 60 0,0
16.11.2018 12:00:00 8,2 3,3 10,4 8,6 7,1 11,6 22 12 30 16 NO 1028,6 15 60 0,0
16.11.2018 11:00:00 6,8 3,1 8,9 7,1 6,8 11,6 18 10 28 15 NO 1029,0 12 60 0,0
16.11.2018 10:00:00 5,5 2,8 6,7 5,5 6,8 11,7 18 10 29 15 NO 1029,1 9 60 0,0
16.11.2018 09:00:00 4,3 2,7 4,7 4,2 6,9 11,6 15 8 20 11 NNO 1028,8 8 34 0,0
16.11.2018 08:00:00 4,0 2,5 2,9 4,0 7,2 11,7 15 8 21 11 NNO 1028,5 10 0 0,0
16.11.2018 07:00:00 3,4 2,0 0,9 4,5 7,4 11,7 7 4 11 6 ONO 1027,9 18 0 0,0
16.11.2018 06:00:00 4,7 2,5 2,5 5,5 7,6 11,7 8 4 19 10 ONO 1027,8 29 0 0,0
16.11.2018 05:00:00 6,0 2,9 5,7 6,0 7,7 11,7 14 8 24 13 ONO 1027,7 36 0 0,0
16.11.2018 04:00:00 6,1 3,4 5,8 6,2 7,7 11,7 16 8 24 13 ONO 1027,7 37 0 0,0
16.11.2018 03:00:00 6,2 3,4 6,0 6,3 7,8 11,7 12 7 24 13 ONO 1027,9 41 0 0,0
16.11.2018 02:00:00 6,4 3,7 6,2 6,5 7,8 11,7 15 8 22 12 ONO 1028,2 37 0 0,0
16.11.2018 01:00:00 6,4 4,4 6,2 6,6 7,8 11,8 4 2 6 4 ONO 1027,8 43 0 0,0
16.11.2018 00:00:00 6,0 4,1 5,9 6,5 7,8 11,8 4 2 7 4 ONO 1027,8 44 0 0,0
15.11.2018 23:00:00 5,8 4,4 5,7 6,5 7,9 11,8 4 2 11 6 ZO 1027,9 35 0 0,0
15.11.2018 22:00:00 5,8 4,0 5,7 6,5 7,9 11,8 6 3 10 5 OZO 1027,9 34 0 0,0
15.11.2018 21:00:00 6,4 4,1 6,1 6,5 8,0 11,8 8 5 17 9 ONO 1027,6 52 0 0,0
15.11.2018 20:00:00 6,3 4,1 6,1 6,5 8,0 11,8 11 6 16 9 ONO 1027,5 43 0 0,0
15.11.2018 19:00:00 6,2 4,3 6,0 6,6 8,1 11,8 10 5 23 12 NO 1027,6 31 0 0,0
15.11.2018 18:00:00 6,1 4,1 5,9 6,7 8,2 11,8 14 7 21 11 NO 1027,4 36 0 0,0
15.11.2018 17:00:00 6,1 4,0 6,0 6,9 8,2 11,9 13 7 22 12 NO 1027,3 34 0 0,0
15.11.2018 16:00:00 5,9 3,9 6,1 7,2 8,3 11,9 14 7 26 14 NO 1027,6 29 0 0,0
15.11.2018 15:00:00 5,9 3,9 6,2 7,4 8,2 11,9 16 9 25 13 NO 1027,6 31 0 0,0
15.11.2018 14:00:00 5,7 4,0 6,0 7,5 8,2 11,9 10 6 17 9 NO 1027,9 28 0 0,0
15.11.2018 13:00:00 5,3 3,7 5,7 7,4 8,1 11,9 5 3 10 6 O 1028,2 26 0 0,0
15.11.2018 12:00:00 4,8 3,6 5,3 7,2 8,0 11,9 8 5 17 9 OZO 1028,5 25 0 0,0
15.11.2018 11:00:00 4,3 3,3 4,7 6,9 8,0 11,9 8 5 13 7 NO 1028,7 17 0 0,0
15.11.2018 10:00:00 4,4 3,8 4,7 6,6 8,1 12,0 9 5 13 7 ONO 1028,6 12 0 0,0
15.11.2018 09:00:00 4,7 4,2 4,8 6,5 8,1 12,0 8 5 13 7 ONO 1028,5 9 0 0,0
15.11.2018 08:00:00 4,8 4,3 4,8 6,5 8,2 12,0 3 2 14 7 O 1028,3 19 0 0,0
15.11.2018 07:00:00 4,6 4,4 4,7 6,5 8,3 12,0 8 4 11 6 NNO 1028,2 7 0 0,0
15.11.2018 06:00:00 4,5 4,3 4,6 6,6 8,4 12,0 7 4 11 6 ONO 1028,1 3,1 0 0,0
15.11.2018 05:00:00 4,7 4,5 4,7 6,7 8,5 12,0 8 5 13 7 ONO 1028,2 8 0 0,0
15.11.2018 04:00:00 4,9 4,7 5,0 6,9 8,6 12,0 10 6 15 8 ONO 1028,2 3,1 0 0,0
15.11.2018 03:00:00 5,2 4,9 5,2 7,2 8,7 12,0 8 4 13 7 NO 1028,4 6 0 0,0
15.11.2018 02:00:00 5,5 5,3 5,7 7,5 8,8 12,1 11 6 14 8 ONO 1028,3 2,8 0 0,0
15.11.2018 01:00:00 5,9 5,9 6,1 7,7 8,9 12,1 6 3 9 5 ONO 1028,1 2,4 0 0,0
15.11.2018 00:00:00 6,4 6,4 6,5 7,8 8,9 12,1 6 3 9 5 NNO 1028,2 3,1 0 0,0
14.11.2018 23:00:00 6,7 6,7 6,7 8,0 8,9 12,1 7 4 10 6 NNO 1028,3 2,3 0 0,0
14.11.2018 22:00:00 6,8 6,8 7,0 8,1 9,0 12,1 3 2 5 3 N 1028,5 1,3 0 0,0
14.11.2018 21:00:00 6,9 6,9 7,0 8,1 9,0 12,2 4 2 8 5 N 1028,5 0,8 0 0,0
14.11.2018 20:00:00 7,1 7,1 7,2 8,3 9,0 12,2 5 3 7 4 NO 1028,7 0,8 0 0,0
14.11.2018 19:00:00 7,0 7,0 7,2 8,3 9,0 12,2 4 2 7 4 Z 1028,8 0,2 0 0,0
14.11.2018 18:00:00 7,0 7,0 7,0 8,5 9,1 12,2 5 3 10 5 ZW 1028,8 0,2 0 0,0
14.11.2018 17:00:00 7,0 7,0 7,3 8,8 9,0 12,2 7 4 11 6 ZZW 1028,6 0,3 0 0,0
14.11.2018 16:00:00 7,3 7,3 7,9 9,3 8,9 12,2 6 3 9 5 ZZW 1028,9 0,9 0 0,0
14.11.2018 15:00:00 7,3 7,3 8,2 9,5 8,6 12,3 6 3 11 6 ZZW 1028,7 0,3 0 0,0
14.11.2018 14:00:00 6,9 6,7 7,9 9,5 8,3 12,3 9 5 11 6 ZW 1029,1 2,2 0 0,0
14.11.2018 13:00:00 7,2 6,8 8,2 9,2 7,9 12,3 6 4 12 7 WZW 1029,5 6 0 0,0
14.11.2018 12:00:00 6,3 5,9 7,5 8,5 7,4 12,3 7 4 12 7 W 1029,9 3,5 11 0,0
14.11.2018 11:00:00 7,0 5,8 8,4 7,9 7,0 12,3 6 3 9 5 ZW 1030,2 16 56 0,0
14.11.2018 10:00:00 5,8 4,3 7,3 5,7 6,8 12,3 6 4 13 7 N 1030,4 32 60 0,0
14.11.2018 09:00:00 3,9 3,6 4,7 3,6 6,9 12,3 9 5 13 7 N 1030,6 29 44 0,0
14.11.2018 08:00:00 0,9 0,7 -0,8 3,1 7,2 12,3 2 1 5 3 Z 1031,1 23 0 0,0
14.11.2018 07:00:00 1,5 1,5 -0,3 3,4 7,4 12,3 4 2 10 5 N 1031,3 16 0 0,0
14.11.2018 06:00:00 1,2 1,0 0,1 3,8 7,7 12,3 4 2 8 5 N 1031,6 0,4 0 0,0
14.11.2018 05:00:00 1,4 1,2 0,4 4,2 8,0 12,3 2 1 5 3 N 1031,4 17 0 0,0
14.11.2018 04:00:00 1,2 1,0 0,4 4,4 8,3 12,3 3 2 4 2 NO 1032,2 23 0 0,0
14.11.2018 03:00:00 2,0 2,0 1,3 4,8 8,6 12,3 0 0 5 3 N 1032,4 0,1 0 0,0
14.11.2018 02:00:00 2,2 2,2 1,0 5,2 8,9 12,3 2 1 6 3 O 1032,2 0,2 0 0,0
14.11.2018 01:00:00 2,8 2,6 1,1 5,4 9,3 12,3 2 1 5 3 O 1032,3 27 0 0,0
14.11.2018 00:00:00 3,2 3,2 1,1 5,9 9,6 12,3 4 2 6 3 ZO 1032,6 24 0 0,0
13.11.2018 23:00:00 4,2 4,1 2,2 6,4 10,0 12,3 0 0 6 3 N 1032,4 19 0 0,0
13.11.2018 22:00:00 5,5 5,5 2,8 7,0 10,4 12,3 4 2 6 4 ZW 1032,2 0,4 0 0,0
13.11.2018 21:00:00 5,6 5,4 3,9 7,7 10,8 12,3 3 2 5 3 O 1031,9 29 0 0,0
13.11.2018 20:00:00 7,8 7,2 5,1 8,4 11,2 12,3 3 2 11 6 Z 1031,6 41 0 0,0
13.11.2018 19:00:00 9,4 7,9 6,7 9,2 11,5 12,2 8 4 12 6 ZZW 1031,2 53 0 0,0
13.11.2018 18:00:00 10,4 7,9 7,8 10,1 11,8 12,2 9 5 16 8 ZW 1030,6 36 0 0,0
13.11.2018 17:00:00 12,0 8,7 10,1 11,4 12,0 12,3 12 7 32 17 ZW 1030,0 67 31 0,0
13.11.2018 16:00:00 13,8 8,9 13,8 12,6 11,9 12,2 18 10 31 17 WZW 1029,4 75 21 0,0
13.11.2018 15:00:00 13,5 9,6 13,4 13,0 11,7 12,2 18 10 34 18 ZW 1029,0 75 19 0,0
13.11.2018 14:00:00 13,4 9,3 14,1 13,0 11,5 12,2 21 12 39 21 WZW 1028,7 75 19 0,0
13.11.2018 13:00:00 13,1 9,7 14,1 12,4 11,3 12,2 24 13 34 18 ZW 1028,4 75 11 0,0
13.11.2018 12:00:00 12,4 9,7 12,6 11,8 11,1 12,2 22 12 36 19 WZW 1028,2 70 0 0,0
13.11.2018 11:00:00 12,2 9,7 12,3 11,7 11,0 12,3 17 9 26 14 WZW 1027,8 75 0 0,0
13.11.2018 10:00:00 11,8 10,0 11,6 11,2 10,9 12,2 21 11 34 19 ZW 1026,8 67 0 0,1
13.11.2018 09:00:00 11,4 10,2 10,6 10,7 10,8 12,2 16 9 23 13 Z 1026,2 43 0 0,7
13.11.2018 08:00:00 11,6 10,7 10,8 10,6 10,8 12,2 15 8 24 13 ZW 1025,8 36 0 0,5
13.11.2018 07:00:00 11,7 11,4 11,2 10,7 10,8 12,2 15 8 20 11 ZW 1024,8 15 0 1,6
13.11.2018 06:00:00 12,0 11,4 11,3 10,7 10,7 12,2 11 6 18 10 ZZW 1024,0 19 0 2,4
13.11.2018 05:00:00 11,9 11,2 11,2 10,6 10,6 12,2 11 6 16 9 Z 1023,2 17 0 1,7
13.11.2018 04:00:00 12,2 11,6 11,5 10,5 10,6 12,2 12 7 17 9 Z 1022,6 19 0 1,7
13.11.2018 03:00:00 11,4 11,3 11,0 10,3 10,5 12,2 11 6 14 8 Z 1022,5 8 0 2,7
13.11.2018 02:00:00 11,4 10,9 10,8 10,1 10,5 12,2 5 3 16 9 Z 1021,3 14 0 0,9
13.11.2018 01:00:00 10,8 10,5 10,4 9,9 10,4 12,2 6 3 9 5 ZZO 1020,9 17 0 0,3
13.11.2018 00:00:00 10,2 9,6 9,9 9,6 10,4 12,2 3 2 5 3 ZZO 1020,2 37 0 0,0
12.11.2018 23:00:00 9,5 8,9 9,4 9,3 10,5 12,2 4 2 5 3 WNW 1020,2 37 0 0,0
12.11.2018 22:00:00 8,6 8,3 8,2 8,8 10,8 12,2 3 1 6 4 OZO 1020,2 32 0 0,0
12.11.2018 21:00:00 8,9 8,4 6,6 9,1 11,0 12,2 3 1 9 5 ZO 1019,8 29 0 0,0
12.11.2018 20:00:00 10,8 9,1 8,0 9,6 11,3 12,2 7 4 16 9 ZO 1019,4 40 0 0,0
12.11.2018 19:00:00 10,0 9,2 8,6 10,1 11,5 12,2 5 3 11 6 N 1019,1 44 0 0,0
12.11.2018 18:00:00 11,8 9,9 8,6 11,0 11,7 12,2 4 2 6 3 N 1018,0 53 0 0,0
12.11.2018 17:00:00 14,3 10,2 10,2 12,2 11,7 12,2 3 1 6 3 NW 1017,2 58 27 0,0

tt = temperatuur
td = dauwpunt
tt 5cm = temperatuur 5cm
tt -5cm = temperatuur -5cm
tt -20cm = temperatuur -20cm
tt -100cm = temperatuur -100cm
ff = windsnelheid
fx = windstoten
dd = windrichting
ppp = luchtdruk
vv = zicht
sd = Zonneschijnduur
rr = neerslag

Weerstations in de omgeving